Flag for Italy Weather past 2 weeks in Modena, Italy

Now
50 °F

Passing clouds.


Feels Like: 50 °F
Forecast: 40 / 62 °F
Wind: 2 mph from Southwest

Location: Bologna / Borgo Panigale

Current Time: Mar 27, 2015 at 3:25:38 AM

Latest Report: Mar 27, 2015 at 2:50 AM


Visibility: 4 mi

Pressure: 29.71 "Hg

Humidity: 100%

Dew point: 50 °F

Location of ModenaLocation

Historic Weather in Modena — Graph

°F

Modena temperature yesterday

Maximum temperature yesterday: 59 °F (at 4:20 PM)
Minimum temperature yesterday: 50 °F (at 12:20 AM)
Average temperature yesterday: 53 °F

Past Weeks' High & Low Weather Summary

 TemperatureHumidityPressure
High61 °F (Mar 13, 2:20 PM)100% (Mar 16, 4:50 AM)30.33 "Hg (Mar 16, 4:50 AM)
Low36 °F (Mar 12, 6:20 AM)27% (Mar 12, 4:20 PM)29.45 "Hg (Mar 25, 1:20 PM)
Average49 °F78%30.06 "Hg
* Reported Mar 12 1:20 AM — Mar 27 1:50 AM, Modena, Weather by CustomWeather, © 2015

Note: Actual official high and low records may vary slightly from our data, if they occured in-between our weather recording intervals... More about our weather records

Advertising

Modena weather history for previous 24 hours

 ConditionsComfort  
Time TempWeatherWind HumidityBarometerVisibility
1:50 AM
Fri, Mar 27
50 °FPassing clouds.2 mph100%29.74 "Hg4 mi
1:20 AM48 °FPassing clouds.3 mph100%29.74 "Hg4 mi
12:50 AM48 °FFog.2 mph100%29.74 "Hg4 mi
12:20 AM50 °FFog.1 mph100%29.74 "Hg4 mi
11:50 PM
Thu, Mar 26
52 °FFog.3 mph100%29.74 "HgN/A
11:20 PM52 °FFog.1 mph94%29.74 "HgN/A
10:50 PM52 °FPassing clouds.1 mph100%29.74 "HgN/A
10:20 PM54 °FPassing clouds.1 mph94%29.77 "HgN/A
9:50 PM52 °FPassing clouds.3 mph100%29.74 "HgN/A
9:20 PM54 °FPassing clouds.No wind94%29.77 "HgN/A
8:50 PM54 °FPassing clouds.3 mph94%29.77 "HgN/A
8:20 PM54 °FPassing clouds.5 mph94%29.77 "HgN/A
7:50 PM52 °FPassing clouds.2 mph94%29.74 "HgN/A
7:20 PM54 °FPassing clouds.3 mph94%29.74 "HgN/A
6:50 PM55 °FPassing clouds.3 mph88%29.74 "HgN/A
6:20 PM55 °FScattered clouds.5 mph88%29.74 "HgN/A
5:50 PM57 °FScattered clouds.3 mph82%29.71 "HgN/A
5:20 PM57 °FScattered clouds.5 mph82%29.71 "HgN/A
4:50 PM57 °FBroken clouds.5 mph88%29.71 "HgN/A
4:20 PM59 °FBroken clouds.1 mph77%29.71 "HgN/A
3:50 PM57 °FBroken clouds.2 mph82%29.71 "HgN/A
3:20 PM57 °FPartly sunny.1 mph77%29.71 "HgN/A
2:50 PM55 °FDrizzle. Partly sunny.2 mph88%29.71 "HgN/A
2:20 PM55 °FDrizzle. Broken clouds.1 mph88%29.71 "HgN/A
1:50 PM55 °FDrizzle. Broken clouds.2 mph88%29.71 "HgN/A
1:20 PM55 °FDrizzle. Broken clouds.2 mph88%29.71 "HgN/A
12:50 PM55 °FLight rain. Broken clouds.3 mph88%29.71 "HgN/A
12:20 PM54 °FDrizzle. Partly sunny.3 mph88%29.71 "HgN/A
11:50 AM54 °FDrizzle. Partly sunny.3 mph88%29.71 "HgN/A
11:20 AM54 °FLight rain. Partly sunny.3 mph88%29.71 "HgN/A
10:50 AM54 °FDrizzle. Partly sunny.5 mph88%29.71 "HgN/A
10:20 AM54 °FDrizzle. Partly sunny.7 mph88%29.71 "HgN/A
9:50 AM54 °FPartly sunny.8 mph88%29.68 "HgN/A
9:20 AM52 °FLight rain. Partly sunny.5 mph94%29.68 "HgN/A
8:50 AM52 °FLight rain. Partly sunny.6 mph94%29.68 "HgN/A
8:20 AM52 °FPartly sunny.8 mph94%29.65 "HgN/A
7:50 AM52 °FScattered clouds.8 mph94%29.65 "HgN/A
7:20 AM52 °FBroken clouds.6 mph94%29.62 "HgN/A
6:50 AM50 °FBroken clouds.8 mph94%29.62 "HgN/A
6:20 AM50 °FBroken clouds.6 mph94%29.59 "HgN/A
5:50 AM50 °FPartly cloudy.5 mph94%29.59 "HgN/A
5:20 AM50 °FPartly cloudy.5 mph94%29.59 "HgN/A
4:50 AM50 °FPartly cloudy.6 mph94%29.56 "HgN/A
3:50 AM50 °FRain. Passing clouds.9 mph94%29.56 "Hg5 mi
3:20 AM50 °FPassing clouds.8 mph94%29.53 "HgN/A
Weather by CustomWeather, © 2015

See weather overviewHow to use our weather pages